�������l�o���
Date,Time,MP-1(��Sv/h),MP-2(��Sv/h),MP-3(��Sv/h),MP-4(��Sv/h),MP-5(��Sv/h),MP-6(��Sv/h),MP-7(��Sv/h),MP-8(��Sv/h),����,����(m/s),���J
2019/12/16,00:00,0.718,1.042,0.696,1.310,0.910,0.409,0.717,0.680,�k��,2.3,��
2019/12/16,00:10,0.717,1.041,0.694,1.309,0.913,0.410,0.717,0.683,�k��,2.2,��
2019/12/16,00:20,0.718,1.042,0.697,1.308,0.912,0.407,0.719,0.682,�k��,1.9,��
2019/12/16,00:30,0.718,1.042,0.695,1.312,0.911,0.409,0.718,0.682,���k��,1.8,��
2019/12/16,00:40,0.718,1.039,0.696,1.311,0.913,0.408,0.715,0.682,�k��,1.3,��
2019/12/16,00:50,0.718,1.039,0.695,1.314,0.910,0.409,0.717,0.681,���k��,2.1,��
2019/12/16,01:00,0.717,1.042,0.696,1.310,0.911,0.409,0.717,0.682,���k��,1.3,��
2019/12/16,01:10,0.720,1.042,0.697,1.311,0.913,0.409,0.717,0.681,�k�k��,1.2,��
2019/12/16,01:20,0.718,1.042,0.694,1.310,0.910,0.410,0.717,0.683,�k�k��,0.9,��
2019/12/16,01:30,0.718,1.042,0.695,1.311,0.912,0.409,0.717,0.681,�k�k��,1.0,��
2019/12/16,01:40,0.718,1.042,0.694,1.310,0.915,0.407,0.716,0.681,�k��,1.1,��
2019/12/16,01:50,0.719,1.042,0.694,1.313,0.910,0.410,0.716,0.681,�k��,1.3,��
2019/12/16,02:00,0.718,1.040,0.695,1.311,0.913,0.409,0.717,0.681,�k�k��,1.3,��
2019/12/16,02:10,0.717,1.041,0.694,1.310,0.911,0.409,0.718,0.680,�k��,0.9,��
2019/12/16,02:20,0.716,1.041,0.696,1.310,0.912,0.409,0.717,0.682,���k��,1.0,��
2019/12/16,02:30,0.718,1.040,0.696,1.310,0.913,0.408,0.719,0.681,��,0.8,��
2019/12/16,02:40,0.717,1.039,0.694,1.311,0.912,0.408,0.718,0.680,���k��,0.9,��
2019/12/16,02:50,0.719,1.041,0.696,1.311,0.911,0.408,0.716,0.680,-,CALM,��
2019/12/16,03:00,0.718,1.042,0.696,1.311,0.910,0.409,0.717,0.680,���쐼,1.0,��
2019/12/16,03:10,0.717,1.041,0.695,1.313,0.910,0.409,0.717,0.681,��,1.0,��
2019/12/16,03:20,0.718,1.040,0.694,1.310,0.910,0.409,0.717,0.681,���쐼,1.3,��
2019/12/16,03:30,0.719,1.043,0.695,1.312,0.913,0.408,0.717,0.682,���쐼,1.8,��
2019/12/16,03:40,0.718,1.041,0.695,1.309,0.910,0.409,0.716,0.681,��,1.6,��
2019/12/16,03:50,0.718,1.042,0.696,1.309,0.910,0.408,0.716,0.680,���쐼,1.6,��
2019/12/16,04:00,0.718,1.041,0.695,1.310,0.911,0.409,0.717,0.681,��,1.3,��
2019/12/16,04:10,0.717,1.041,0.697,1.309,0.910,0.408,0.717,0.680,��,3.1,��
2019/12/16,04:20,0.718,1.040,0.695,1.309,0.909,0.409,0.717,0.681,��,3.4,��
2019/12/16,04:30,0.717,1.044,0.694,1.308,0.911,0.409,0.717,0.680,���k��,4.4,��
2019/12/16,04:40,0.717,1.041,0.696,1.311,0.910,0.408,0.715,0.682,��,3.8,��
2019/12/16,04:50,0.715,1.040,0.693,1.311,0.909,0.408,0.717,0.680,��,4.5,��
2019/12/16,05:00,0.716,1.042,0.695,1.312,0.908,0.408,0.718,0.680,��,5.2,��
2019/12/16,05:10,0.717,1.041,0.694,1.311,0.911,0.407,0.717,0.681,��,5.2,��
2019/12/16,05:20,0.716,1.040,0.696,1.310,0.909,0.408,0.717,0.682,���k��,4.4,��
2019/12/16,05:30,0.717,1.040,0.695,1.311,0.909,0.409,0.717,0.681,���k��,3.9,��
2019/12/16,05:40,0.717,1.039,0.695,1.309,0.911,0.407,0.718,0.682,���k��,3.6,��
2019/12/16,05:50,0.717,1.041,0.694,1.310,0.910,0.408,0.717,0.682,���k��,3.8,��
2019/12/16,06:00,0.717,1.041,0.695,1.309,0.909,0.407,0.719,0.681,���k��,4.1,��
2019/12/16,06:10,0.716,1.037,0.695,1.312,0.908,0.409,0.718,0.682,���k��,4.0,��
2019/12/16,06:20,0.717,1.039,0.694,1.308,0.909,0.408,0.717,0.680,���k��,3.8,��
2019/12/16,06:30,0.717,1.041,0.693,1.309,0.910,0.407,0.716,0.680,�k��,3.4,��
2019/12/16,06:40,0.716,1.040,0.694,1.309,0.910,0.408,0.719,0.681,���k��,3.8,��
2019/12/16,06:50,0.717,1.041,0.695,1.311,0.908,0.409,0.716,0.682,�k��,4.1,��
2019/12/16,07:00,0.717,1.039,0.694,1.310,0.909,0.409,0.717,0.680,�k��,4.1,��
2019/12/16,07:10,0.717,1.038,0.696,1.309,0.908,0.408,0.716,0.681,���k��,4.9,��
2019/12/16,07:20,0.716,1.038,0.693,1.308,0.909,0.409,0.719,0.681,���k��,5.8,��
2019/12/16,07:30,0.719,1.039,0.695,1.309,0.909,0.408,0.717,0.681,���k��,5.3,��
2019/12/16,07:40,0.717,1.039,0.693,1.310,0.910,0.408,0.719,0.681,���k��,4.6,��
2019/12/16,07:50,0.718,1.039,0.694,1.310,0.909,0.409,0.716,0.681,���k��,4.3,��
2019/12/16,08:00,0.717,1.038,0.695,1.310,0.908,0.408,0.717,0.682,���k��,4.1,��
2019/12/16,08:10,0.719,1.041,0.697,1.309,0.911,0.408,0.719,0.682,���k��,3.4,��
2019/12/16,08:20,0.718,1.041,0.694,1.309,0.908,0.409,0.719,0.682,��,3.1,��
2019/12/16,08:30,0.719,1.041,0.693,1.311,0.910,0.408,0.720,0.682,��,2.9,��
2019/12/16,08:40,0.720,1.038,0.695,1.310,0.909,0.408,0.719,0.683,���k��,3.1,��
2019/12/16,08:50,0.719,1.040,0.694,1.309,0.910,0.406,0.720,0.682,���k��,3.5,��
2019/12/16,09:00,0.720,1.039,0.694,1.312,0.910,0.408,0.718,0.684,���k��,2.3,��
2019/12/16,09:10,0.718,1.038,0.695,1.311,0.909,0.409,0.721,0.683,�k��,1.6,��
2019/12/16,09:20,0.719,1.040,0.697,1.308,0.911,0.409,0.721,0.682,�k��,2.3,��
2019/12/16,09:30,0.720,1.039,0.695,1.308,0.912,0.409,0.721,0.683,�k��,2.6,��
2019/12/16,09:40,0.720,1.039,0.696,1.308,0.912,0.409,0.721,0.681,�k��,2.5,��
2019/12/16,09:50,0.720,1.037,0.695,1.308,0.911,0.409,0.720,0.683,�k�k��,2.3,��
2019/12/16,10:00,0.720,1.040,0.696,1.311,0.911,0.410,0.720,0.682,�k,1.7,��
2019/12/16,10:10,0.721,1.041,0.698,1.311,0.910,0.409,0.719,0.682,�k,2.2,��
2019/12/16,10:20,0.719,1.037,0.696,1.314,0.910,0.408,0.718,0.683,�k��,1.6,��
2019/12/16,10:30,0.720,1.039,0.696,1.311,0.913,0.411,0.718,0.682,�k��,2.6,��
2019/12/16,10:40,0.722,1.041,0.697,1.311,0.915,0.410,0.718,0.684,�k��,2.6,��
2019/12/16,10:50,0.722,1.037,0.696,1.312,0.914,0.409,0.719,0.681,�k��,2.0,��
2019/12/16,11:00,0.722,1.040,0.695,1.313,0.913,0.410,0.718,0.683,�k��,1.9,��
2019/12/16,11:10,0.721,1.035,0.697,1.312,0.914,0.409,0.719,0.684,���k��,1.9,��
2019/12/16,11:20,0.721,1.038,0.696,1.312,0.913,0.410,0.720,0.682,���k��,2.4,��
2019/12/16,11:30,0.723,1.039,0.695,1.309,0.912,0.408,0.720,0.683,�k��,2.5,��
2019/12/16,11:40,0.723,1.041,0.697,1.314,0.915,0.409,0.717,0.684,���k��,1.7,��
2019/12/16,11:50,0.721,1.040,0.696,1.313,0.914,0.410,0.719,0.684,�k��,1.7,��
2019/12/16,12:00,0.724,1.042,0.698,1.312,0.914,0.409,0.722,0.681,��,2.0,��
2019/12/16,12:10,0.722,1.040,0.696,1.311,0.915,0.411,0.719,0.684,��,1.4,��
2019/12/16,12:20,0.721,1.043,0.696,1.311,0.914,0.411,0.721,0.685,���쓌,1.9,��
2019/12/16,12:30,0.723,1.042,0.697,1.311,0.914,0.411,0.719,0.683,��,2.0,��
2019/12/16,12:40,0.722,1.041,0.698,1.312,0.917,0.410,0.722,0.684,���k��,2.3,��
2019/12/16,12:50,0.722,1.042,0.698,1.313,0.916,0.410,0.722,0.683,���k��,2.1,��
2019/12/16,13:00,0.724,1.044,0.698,1.311,0.916,0.411,0.722,0.683,�k��,2.3,��
2019/12/16,13:10,0.721,1.042,0.697,1.310,0.913,0.410,0.721,0.683,��,2.0,��
2019/12/16,13:20,0.722,1.042,0.696,1.313,0.916,0.411,0.721,0.683,���k��,1.4,��
2019/12/16,13:30,0.722,1.042,0.695,1.311,0.915,0.411,0.721,0.681,�k��,1.2,��
2019/12/16,13:40,0.723,1.041,0.698,1.313,0.915,0.412,0.721,0.681,�k��,1.5,��
2019/12/16,13:50,0.723,1.040,0.696,1.311,0.914,0.410,0.721,0.681,�k��,1.6,��
2019/12/16,14:00,0.722,1.042,0.698,1.310,0.915,0.411,0.720,0.681,���k��,1.2,��
2019/12/16,14:10,0.723,1.041,0.698,1.314,0.917,0.409,0.721,0.681,���k��,1.4,��
2019/12/16,14:20,0.723,1.039,0.698,1.310,0.915,0.413,0.721,0.683,���쓌,1.2,��
2019/12/16,14:30,0.721,1.042,0.696,1.311,0.914,0.410,0.722,0.684,�쓌,2.0,��
2019/12/16,14:40,0.721,1.044,0.698,1.313,0.917,0.411,0.722,0.684,�쓌,1.2,��
2019/12/16,14:50,0.721,1.042,0.698,1.311,0.914,0.412,0.721,0.683,�쓌,1.9,��
2019/12/16,15:00,0.723,1.048,0.698,1.312,0.915,0.411,0.722,0.684,�쓌,1.9,��
2019/12/16,15:10,0.722,1.045,0.700,1.312,0.913,0.412,0.721,0.683,���쓌,1.7,��
2019/12/16,15:20,0.722,1.046,0.698,1.313,0.916,0.410,0.720,0.684,�쓌,1.4,��
2019/12/16,15:30,0.723,1.045,0.698,1.311,0.916,0.410,0.722,0.683,��쓌,1.2,��
2019/12/16,15:40,0.721,1.046,0.697,1.312,0.915,0.412,0.721,0.683,�쓌,1.3,��
2019/12/16,15:50,0.724,1.045,0.695,1.311,0.914,0.411,0.721,0.682,���쓌,0.7,��
2019/12/16,16:00,0.722,1.046,0.698,1.311,0.914,0.411,0.721,0.682,���쓌,0.8,��
2019/12/16,16:10,0.722,1.044,0.698,1.313,0.915,0.414,0.721,0.685,���k��,0.6,��
2019/12/16,16:20,0.723,1.045,0.698,1.311,0.916,0.411,0.720,0.683,���쓌,0.7,��
2019/12/16,16:30,0.720,1.042,0.699,1.310,0.914,0.412,0.720,0.683,�쓌,0.7,��
2019/12/16,16:40,0.721,1.045,0.698,1.310,0.912,0.411,0.720,0.683,-,CALM,��
2019/12/16,16:50,0.723,1.046,0.696,1.310,0.914,0.411,0.719,0.682,-,CALM,��
2019/12/16,17:00,0.720,1.045,0.697,1.312,0.915,0.412,0.720,0.682,���쐼,0.5,��
2019/12/16,17:10,0.721,1.043,0.696,1.311,0.914,0.411,0.721,0.681,��,0.9,��
2019/12/16,17:20,0.722,1.043,0.698,1.308,0.913,0.411,0.718,0.684,���k��,1.0,��
2019/12/16,17:30,0.719,1.042,0.698,1.310,0.913,0.409,0.718,0.683,��,1.1,��
2019/12/16,17:40,0.720,1.044,0.697,1.312,0.913,0.412,0.719,0.681,���k��,1.3,��
2019/12/16,17:50,0.721,1.043,0.697,1.311,0.914,0.410,0.720,0.682,���k��,0.9,��
2019/12/16,18:00,0.720,1.045,0.698,1.311,0.915,0.412,0.718,0.681,�k��,0.8,��
2019/12/16,18:10,0.722,1.045,0.697,1.311,0.914,0.410,0.719,0.682,���k��,0.9,��
2019/12/16,18:20,0.720,1.044,0.698,1.310,0.914,0.409,0.719,0.684,��,1.3,��
2019/12/16,18:30,0.721,1.043,0.698,1.310,0.915,0.412,0.719,0.682,���쐼,0.8,��
2019/12/16,18:40,0.720,1.044,0.697,1.311,0.912,0.411,0.721,0.683,���쐼,1.4,��
2019/12/16,18:50,0.722,1.043,0.697,1.313,0.914,0.411,0.718,0.683,���쐼,2.0,��
2019/12/16,19:00,0.721,1.045,0.699,1.309,0.915,0.412,0.719,0.683,���쐼,2.2,��
2019/12/16,19:10,0.720,1.046,0.697,1.313,0.915,0.412,0.718,0.681,�쐼,2.1,��
2019/12/16,19:20,0.720,1.042,0.697,1.309,0.912,0.410,0.720,0.682,�쐼,2.2,��
2019/12/16,19:30,0.722,1.041,0.698,1.313,0.914,0.411,0.717,0.681,�쐼,2.9,��
2019/12/16,19:40,0.721,1.042,0.697,1.313,0.914,0.410,0.719,0.681,�쐼,3.2,��
2019/12/16,19:50,0.720,1.045,0.696,1.312,0.912,0.410,0.721,0.682,�쐼,2.0,��
2019/12/16,20:00,0.721,1.041,0.698,1.312,0.913,0.410,0.720,0.682,�쐼,3.2,��
2019/12/16,20:10,0.722,1.042,0.698,1.311,0.913,0.410,0.718,0.683,�쐼,4.9,��
2019/12/16,20:20,0.720,1.043,0.697,1.311,0.913,0.409,0.718,0.684,�쐼,4.4,��
2019/12/16,20:30,0.720,1.044,0.695,1.311,0.915,0.411,0.717,0.682,�쐼,4.1,��
2019/12/16,20:40,0.720,1.042,0.695,1.310,0.913,0.410,0.720,0.682,�쐼,4.3,��
2019/12/16,20:50,0.721,1.041,0.697,1.311,0.913,0.411,0.719,0.683,�쐼,4.0,��
2019/12/16,21:00,0.720,1.042,0.697,1.310,0.914,0.410,0.718,0.682,�쐼,3.2,��
2019/12/16,21:10,0.721,1.043,0.694,1.309,0.913,0.410,0.720,0.683,�쐼,3.1,��
2019/12/16,21:20,0.719,1.043,0.697,1.311,0.913,0.410,0.719,0.682,��쐼,3.8,��
2019/12/16,21:30,0.721,1.042,0.697,1.312,0.914,0.408,0.720,0.683,��쐼,3.2,��
2019/12/16,21:40,0.720,1.044,0.696,1.309,0.911,0.411,0.719,0.682,��,1.8,��
2019/12/16,21:50,0.721,1.042,0.696,1.311,0.915,0.410,0.720,0.682,��,0.5,��
2019/12/16,22:00,0.720,1.040,0.697,1.312,0.912,0.411,0.719,0.683,��쓌,0.5,��
2019/12/16,22:10,0.719,1.044,0.698,1.309,0.916,0.410,0.720,0.681,�쓌,0.8,��
2019/12/16,22:20,0.720,1.043,0.696,1.309,0.915,0.409,0.719,0.683,��쓌,0.7,��
2019/12/16,22:30,0.721,1.044,0.699,1.308,0.915,0.410,0.720,0.682,-,CALM,��
2019/12/16,22:40,0.721,1.041,0.697,1.310,0.912,0.410,0.718,0.683,�쓌,0.9,��
2019/12/16,22:50,0.720,1.042,0.695,1.311,0.912,0.410,0.719,0.682,��쓌,1.1,��
2019/12/16,23:00,0.720,1.042,0.698,1.310,0.912,0.410,0.718,0.683,��쓌,1.3,��
2019/12/16,23:10,0.719,1.044,0.696,1.308,0.913,0.410,0.718,0.684,��쓌,1.2,��
2019/12/16,23:20,0.720,1.042,0.698,1.310,0.913,0.409,0.719,0.683,���쓌,0.6,��
2019/12/16,23:30,0.721,1.040,0.696,1.313,0.911,0.410,0.718,0.682,��쓌,1.0,��
2019/12/16,23:40,0.720,1.041,0.695,1.308,0.912,0.409,0.719,0.684,��쓌,1.1,��
2019/12/16,23:50,0.721,1.044,0.695,1.310,0.913,0.410,0.719,0.682,��쓌,1.2,��
